Theta_e
302 301 301 300 300 301 302 302 301 302 302 299 296 298 293 294 291 303 302 302 301 290 283 289 287 286 286 290 288 291 291 290 291 290 292 290 290 289 290 289 287 289 286 286 286 287 286 288 288 291 292 292 296 298 299 296 294 294 290 290 292 301 280 280 279 281 285 288 290 293 294 293 292 292 289 284 284 281 282 276 278 278 278 278 275 275 282
301 301 300 300 301 302 302 301 301 301 302 299 299 294 292 294 290 297 301 303 300 288 280 281 281 284 286 289 287 290 290 290 288 290 292 290 289 290 290 290 289 289 288 288 287 289 283 291 290 289 292 292 297 297 300 300 296 291 292 287 294 283 281 280 277 276 278 280 283 285 289 293 287 288 288 290 286 285 283 282 280 279 281 276 279 276 285
301 300 300 300 301 302 301 301 300 301 302 303 298 291 294 291 297 299 298 301 298 287 286 283 278 285 286 287 289 292 293 292 292 292 292 291 289 290 288 289 289 288 288 289 291 292 289 288 293 292 293 293 297 297 300 303 300 304 303 306 293 283 280 280 274 273 271 271 273 277 282 287 288 289 289 290 285 284 285 282 279 277 280 280 279 279 288
300 300 299 300 301 302 301 300 301 301 302 303 299 294 292 290 284 294 295 296 295 294 296 294 289 284 285 284 288 292 289 293 293 292 291 290 291 290 291 289 289 288 291 289 289 290 293 290 289 290 290 291 296 295 297 303 303 306 308 301 295 285 284 280 278 278 277 276 278 283 287 286 285 288 287 287 286 285 283 281 278 279 278 278 281 288 289
300 300 299 300 301 301 301 301 301 302 302 303 298 295 293 294 288 288 286 294 294 292 292 292 291 285 287 283 288 289 290 291 292 292 289 291 290 290 291 289 288 287 287 286 288 287 291 293 292 290 290 293 294 296 296 298 305 308 304 302 288 285 284 287 287 286 283 283 288 288 289 287 287 285 285 287 286 284 282 281 278 282 283 278 283 291 290
300 299 300 300 300 301 301 300 301 302 302 303 299 291 294 287 291 294 296 288 285 287 288 292 291 291 292 287 290 289 287 288 287 291 292 291 292 289 290 290 289 286 287 286 285 286 288 287 285 291 290 291 292 294 296 295 299 303 297 297 289 283 281 287 284 286 288 288 289 290 290 289 289 289 288 287 289 287 284 284 285 283 281 282 286 291 290
300 300 300 300 300 300 300 300 301 302 302 302 297 289 295 296 294 292 297 289 288 290 290 292 292 290 291 286 290 287 287 287 290 289 290 290 291 289 282 287 289 288 288 286 284 284 282 284 287 288 288 289 286 288 290 295 295 297 295 294 289 288 282 286 286 286 287 288 288 289 289 288 289 289 289 290 290 289 289 289 288 285 284 285 291 291 288
300 300 300 300 299 301 301 300 301 302 302 301 296 293 290 292 292 289 295 294 290 289 289 290 290 286 292 286 289 290 289 289 291 291 288 284 290 290 288 288 288 289 289 287 285 288 287 288 284 289 288 287 287 288 288 287 291 294 293 295 293 289 285 290 283 281 282 287 289 289 289 289 287 288 289 290 289 290 291 290 289 290 288 289 289 287 285
300 299 299 299 300 301 301 301 301 302 302 296 294 294 297 298 300 299 293 288 288 290 290 289 287 285 287 287 289 289 290 289 291 289 290 289 288 289 288 289 289 290 289 289 288 290 289 289 290 290 287 287 291 287 290 292 290 289 290 292 290 290 285 285 281 282 282 286 285 286 288 288 287 286 287 288 288 286 287 286 289 288 287 289 289 286 285
300 300 299 299 299 301 301 301 301 301 302 296 296 293 301 299 304 302 297 287 293 289 289 288 288 284 287 291 290 289 290 292 289 286 290 291 292 292 291 290 290 287 289 287 290 291 290 291 290 290 294 294 293 293 291 289 289 286 288 289 285 287 287 285 283 284 282 286 283 282 281 283 282 281 285 289 289 290 290 290 290 290 291 288 286 287 288
300 299 299 299 299 300 300 300 301 302 301 295 294 294 296 294 293 295 297 289 285 286 286 285 286 290 288 292 291 290 290 290 289 286 286 291 292 291 292 290 288 285 287 290 294 292 292 293 295 295 296 295 294 293 294 294 292 288 286 284 285 288 289 285 285 283 283 285 280 282 279 275 278 287 291 291 289 288 286 285 287 288 288 284 287 287 289
299 299 299 299 299 300 300 300 301 302 302 300 299 295 299 299 296 296 288 285 285 286 286 284 287 289 289 290 289 288 289 290 291 291 289 289 291 291 290 288 288 285 293 292 292 295 295 294 295 296 294 294 294 294 293 291 291 292 288 287 285 284 282 281 282 284 283 282 281 279 273 274 287 293 292 293 291 289 287 287 288 288 288 288 287 288 288
299 299 299 299 300 300 300 301 302 302 302 301 299 294 299 301 295 293 293 290 285 286 284 286 288 288 289 289 287 288 289 289 290 291 290 290 289 290 291 289 286 291 293 290 291 289 287 286 287 287 287 286 289 292 291 290 290 291 291 290 289 283 284 278 280 279 281 281 279 275 272 282 290 292 293 294 293 290 289 286 288 289 289 289 287 287 287
299 299 299 299 300 300 300 301 301 302 302 302 298 298 300 299 294 294 293 286 285 285 285 285 283 286 288 288 288 288 289 289 288 289 289 289 288 289 291 291 291 291 290 291 288 285 283 279 279 278 283 281 281 283 286 286 289 288 289 289 289 287 282 283 280 279 280 280 280 279 284 285 287 287 289 289 286 285 284 282 285 289 290 289 287 287 287
298 298 298 299 300 300 300 300 301 302 302 302 300 300 300 299 297 295 295 293 285 285 282 282 283 286 287 287 287 285 284 285 288 286 287 288 288 290 291 292 290 290 289 288 282 283 281 276 278 276 278 274 272 278 281 283 285 287 287 288 287 286 287 282 282 277 279 280 279 280 279 278 283 287 290 291 292 290 290 287 284 290 290 290 288 286 287
299 298 299 299 299 300 300 300 301 302 302 303 300 299 300 300 299 296 294 292 288 282 283 287 288 287 285 287 287 287 283 279 283 282 282 285 288 290 293 291 292 291 290 285 280 278 279 280 274 273 272 274 277 278 279 282 283 287 286 287 289 287 286 284 282 278 277 276 277 277 276 279 284 286 289 291 291 291 290 286 283 288 290 290 289 287 287
298 298 298 299 299 300 300 300 301 301 302 302 299 299 297 301 297 295 293 294 292 284 288 290 289 288 284 286 287 285 284 282 281 283 280 283 287 286 291 291 290 291 286 281 280 278 276 275 272 273 278 279 278 275 281 277 277 281 286 283 285 284 278 280 281 276 274 275 272 273 276 279 285 287 287 289 291 291 288 278 280 287 290 290 289 288 288
299 298 298 299 299 299 300 300 301 301 301 303 301 298 298 301 300 298 295 293 287 285 286 288 289 284 285 283 283 286 286 286 286 284 282 284 286 288 289 289 289 290 290 282 279 276 272 271 276 273 274 282 282 281 275 278 276 276 279 278 279 277 277 278 278 273 275 277 273 276 277 283 286 288 290 290 291 290 281 276 281 288 289 290 290 289 289
299 298 298 298 299 299 300 300 301 301 302 302 302 300 299 300 300 299 297 295 291 281 288 288 289 288 290 290 288 288 288 288 285 284 283 282 287 290 290 291 290 286 286 281 278 274 274 276 276 271 275 279 281 277 279 274 275 277 278 278 279 277 276 277 275 274 274 273 276 273 273 280 287 289 289 291 290 282 281 287 291 290 289 291 291 290 291
299 298 298 298 298 299 300 300 301 301 302 303 302 296 298 300 301 299 296 290 286 283 285 287 290 289 290 291 287 288 288 287 284 283 279 281 286 290 285 284 287 285 283 282 279 279 275 277 278 279 275 276 281 278 276 276 279 280 279 280 276 277 277 277 277 275 274 271 274 274 273 280 286 289 290 291 285 285 289 290 290 289 289 290 291 291 291
298 298 298 298 299 299 300 300 301 302 302 303 302 297 296 301 300 301 300 293 289 280 281 287 289 289 290 289 291 292 289 289 285 283 283 285 287 283 277 276 283 283 282 280 278 280 275 277 280 278 281 279 282 281 277 275 279 283 282 279 281 285 280 277 278 282 276 271 272 274 279 283 289 288 284 287 290 292 292 291 288 289 288 288 288 289 290
298 298 298 298 299 300 300 301 302 302 303 302 302 299 295 300 302 301 301 300 292 285 286 289 289 288 290 292 293 292 295 292 291 289 288 286 286 287 282 281 281 285 285 282 282 280 282 279 280 277 277 279 281 275 278 270 272 278 282 283 278 283 279 281 279 281 274 273 277 284 286 288 291 291 291 292 293 293 292 291 290 289 289 290 289 288 290
298 298 298 299 299 300 301 301 302 302 303 303 302 298 295 297 298 303 301 294 296 296 294 288 287 289 292 293 293 293 293 296 294 291 291 289 286 286 285 287 288 289 287 285 283 283 282 282 276 280 280 279 278 277 279 277 276 280 278 284 283 286 287 287 284 282 287 288 288 289 290 290 290 292 293 292 292 292 291 290 289 289 290 290 289 289 289
298 298 298 299 299 300 301 301 302 302 302 303 302 297 296 298 299 299 299 293 287 284 285 286 285 283 283 289 291 291 293 293 297 297 293 293 286 286 288 289 290 288 288 287 286 287 282 279 282 280 279 281 280 274 274 276 280 284 283 283 285 287 286 282 283 285 283 278 287 287 287 289 290 290 291 292 292 291 291 290 290 290 290 290 290 290 290
298 298 299 299 299 300 301 301 302 302 303 303 302 302 301 299 300 299 294 284 281 279 281 280 281 289 291 290 291 291 291 296 300 297 295 292 290 287 288 294 293 290 288 288 286 286 280 280 281 278 279 282 282 278 282 281 281 284 278 282 282 280 287 284 285 284 282 281 285 287 289 290 291 290 289 289 290 291 291 291 291 291 291 291 290 290 290
298 298 299 299 299 300 301 301 302 302 302 303 303 300 298 297 298 300 295 289 284 280 280 278 286 291 289 291 291 292 293 294 295 297 297 295 294 298 296 291 291 290 288 287 289 285 281 281 279 278 281 282 284 278 277 281 283 282 281 280 283 285 289 280 284 281 284 286 287 287 288 288 289 290 290 291 290 290 290 291 291 291 290 290 290 290 289
297 298 299 299 300 300 301 301 302 302 302 303 302 300 299 299 299 297 293 286 286 283 280 283 283 287 291 291 293 292 292 293 296 295 295 295 295 295 294 293 292 290 290 288 284 282 282 281 280 281 282 282 282 282 283 283 281 278 279 284 286 285 281 285 284 280 280 281 283 288 283 281 284 288 290 290 292 291 290 290 290 290 289 289 288 288 288
298 298 299 299 300 300 301 301 302 302 302 303 301 298 300 298 297 298 296 293 288 283 281 279 283 287 289 293 293 293 293 294 295 294 293 293 293 293 292 291 289 286 283 285 285 284 282 283 283 279 279 283 282 282 280 281 281 281 282 282 284 283 285 285 282 281 280 286 288 289 288 287 287 288 290 291 292 291 289 288 288 288 289 288 287 286 286
298 298 299 299 300 300 301 301 302 302 303 302 296 295 295 297 297 297 298 297 289 284 280 282 285 287 285 288 293 292 294 294 294 293 293 293 292 292 292 291 289 285 287 284 282 281 280 279 279 282 283 285 283 279 279 279 279 279 281 284 283 285 289 288 288 288 288 290 289 290 288 285 287 290 290 291 291 290 288 289 289 288 288 288 287 286 285
298 299 299 299 300 300 301 301 302 302 303 297 291 287 286 292 292 295 297 298 290 287 283 281 282 282 286 290 290 290 292 294 294 293 292 292 291 291 291 291 289 288 287 285 284 282 281 281 277 282 286 285 281 275 274 279 280 283 286 285 286 288 289 289 291 289 286 291 291 291 290 289 290 290 290 290 291 290 288 287 286 286 286 286 285 284 284
298 299 299 300 300 300 301 301 302 302 302 291 288 285 281 282 291 297 299 297 291 287 282 283 283 281 284 290 289 291 290 292 292 291 290 289 289 289 288 291 288 288 285 284 282 281 279 279 277 282 284 288 278 272 278 278 280 283 285 285 286 288 289 289 291 291 291 290 291 291 290 289 289 288 288 288 288 288 287 287 289 289 286 285 282 282 282
299 299 300 300 300 300 301 302 302 303 297 292 291 289 288 289 292 296 300 299 292 290 284 281 281 280 279 283 288 290 292 290 288 287 287 289 290 288 289 289 287 287 286 282 281 281 281 278 278 282 282 285 283 274 277 278 279 281 285 285 287 289 290 289 290 291 291 291 290 287 286 286 287 286 285 286 287 287 287 286 286 286 286 283 281 281 281
299 300 300 300 300 301 301 302 303 302 297 297 301 302 301 303 303 302 302 295 289 284 280 279 277 278 279 284 287 290 291 288 288 284 288 287 287 285 285 284 284 287 293 286 280 279 281 277 278 281 283 280 275 274 277 274 280 284 286 286 287 288 289 289 290 290 290 289 288 285 284 285 286 286 286 286 286 286 286 285 284 284 284 284 283 283 283
300 300 300 300 301 301 302 302 303 302 301 293 290 293 296 303 300 302 294 290 287 284 281 280 278 278 280 283 286 288 289 284 284 281 283 288 285 284 282 282 285 283 286 283 280 281 280 281 281 277 278 278 275 276 275 281 283 285 285 286 287 288 289 289 288 287 287 287 288 287 287 287 287 287 287 286 285 284 284 283 283 283 282 282 282 282 281
299 300 300 301 301 302 302 302 296 295 294 292 293 292 293 304 303 302 298 289 287 281 279 279 276 276 278 277 274 285 288 285 283 282 282 286 285 286 283 282 281 282 283 283 279 275 277 280 281 278 277 276 274 273 273 280 282 283 285 285 286 287 287 286 285 285 285 286 286 286 287 287 287 285 284 284 284 284 284 283 283 283 282 281 282 281 282
299 300 301 302 302 301 296 297 293 292 289 290 293 301 304 304 303 295 293 291 287 278 276 277 274 276 274 273 277 283 287 282 282 282 283 279 283 284 280 280 281 280 281 278 278 276 277 283 279 276 270 273 273 274 280 282 283 284 285 285 285 286 285 286 285 285 285 285 285 286 286 286 285 284 284 284 284 284 284 283 282 282 282 282 282 281 281
300 301 302 300 293 292 288 288 291 294 293 295 299 303 304 301 296 294 291 291 292 289 281 277 279 279 276 278 275 278 283 281 279 277 279 279 279 277 276 275 278 280 275 276 275 277 281 283 276 272 271 273 276 281 283 284 284 284 284 285 284 285 285 284 285 286 285 285 285 285 285 284 283 283 284 283 283 283 284 284 283 283 282 282 281 282 282
300 300 290 290 287 283 285 286 291 296 301 301 301 292 290 288 285 282 283 283 286 289 280 280 277 282 279 280 280 285 282 278 279 280 279 277 279 280 277 279 279 279 274 273 278 283 275 275 271 272 275 279 281 282 283 284 284 285 285 284 284 285 285 284 286 286 284 283 282 282 283 284 283 282 284 283 282 283 283 283 282 282 282 282 282 282 281
296 290 287 285 284 283 284 290 296 300 296 296 289 286 284 281 281 282 281 279 280 283 280 282 281 278 279 280 283 286 285 279 273 275 277 281 278 279 276 276 278 275 273 272 278 281 275 273 268 269 273 278 281 283 284 284 284 286 286 285 285 286 286 286 287 286 285 284 284 285 285 284 284 283 282 283 282 282 281 281 282 282 282 282 281 281 282
289 288 284 281 284 286 291 294 298 294 291 287 281 282 282 281 282 280 278 280 279 277 279 282 279 278 280 283 281 282 285 281 275 277 275 279 282 277 278 275 277 274 271 269 277 277 273 271 268 269 274 277 281 282 283 284 285 284 285 285 285 286 286 287 287 287 287 286 287 287 286 287 287 286 284 283 283 283 282 282 282 282 282 282 281 282 283
287 286 283 282 286 287 290 292 290 285 283 282 281 279 279 280 280 279 276 274 277 279 279 282 283 283 284 280 280 280 285 284 280 279 277 278 281 279 276 276 276 272 270 272 277 272 270 270 269 270 276 277 280 282 282 283 284 284 284 284 285 286 287 287 286 286 286 286 285 284 284 285 285 285 285 285 285 284 284 283 282 282 282 282 282 281 281
287 287 287 290 292 293 293 289 284 284 281 281 279 277 276 278 279 278 277 277 277 275 283 282 281 283 283 283 284 281 284 283 279 276 277 278 280 274 276 274 272 270 269 274 275 269 268 270 270 271 274 279 280 282 284 284 284 284 284 284 285 285 286 287 286 285 287 288 286 285 284 284 284 284 285 284 284 284 284 283 282 282 283 282 282 281 282
298 297 294 290 286 282 281 283 281 280 279 277 273 275 274 275 278 277 277 275 276 280 283 285 283 284 287 283 284 284 283 285 285 279 275 277 278 275 273 271 271 271 275 274 271 268 267 267 267 275 279 281 281 283 285 286 285 285 285 284 285 286 287 287 287 287 285 287 287 286 285 285 285 284 284 285 284 283 283 283 284 284 282 283 282 282 282
294 293 288 282 283 282 283 280 282 281 276 274 274 273 273 274 276 273 275 278 280 282 282 283 283 283 282 282 282 282 281 284 281 276 276 275 274 272 272 272 274 274 276 272 269 271 269 266 274 280 281 281 283 284 285 285 285 285 284 283 283 284 285 285 285 285 284 284 285 285 284 284 283 283 283 283 285 285 283 282 283 283 283 283 283 282 280
287 281 277 279 277 279 280 275 277 276 275 275 275 271 271 272 270 269 274 275 281 284 281 281 282 283 282 283 280 280 281 281 278 278 277 274 273 272 271 273 272 269 272 271 267 267 271 272 276 278 280 282 283 284 284 285 285 286 285 283 283 284 285 286 285 285 285 285 285 285 284 284 284 283 283 284 284 286 286 285 284 284 283 283 282 282 280
282 279 276 276 275 277 276 273 272 275 274 275 273 275 276 276 277 277 279 278 280 282 285 283 282 283 281 279 281 280 275 273 275 276 275 272 272 274 275 274 271 269 269 265 267 268 269 273 278 281 282 284 284 283 284 285 285 284 285 285 284 284 285 286 285 286 285 284 284 285 284 284 285 284 284 284 284 285 285 286 285 285 284 283 283 283 282
282 280 276 276 274 276 277 274 273 274 276 277 277 279 280 281 279 280 282 281 282 283 283 281 282 282 281 280 279 279 276 274 276 276 275 275 274 276 277 275 272 267 267 267 264 262 265 273 278 282 283 284 284 284 283 283 284 285 287 286 284 284 285 285 285 285 285 285 285 285 284 285 284 285 285 284 284 284 284 285 285 285 286 286 284 283 282
282 280 278 276 274 275 276 276 276 278 278 280 279 278 279 280 281 283 282 282 283 284 286 283 284 282 282 279 279 277 276 276 276 277 276 276 276 271 268 269 267 265 266 267 266 270 273 276 281 282 284 285 285 283 283 283 284 285 285 285 285 284 284 285 285 284 284 285 285 285 285 284 284 285 286 286 284 283 284 285 285 284 284 283 283 282 283
281 277 277 273 275 275 274 274 278 280 279 276 276 278 280 282 281 280 281 281 285 285 284 283 279 278 279 276 274 278 278 275 274 275 275 272 271 270 268 266 265 269 270 268 268 272 276 280 283 284 284 284 284 285 284 284 285 284 285 285 285 285 285 285 285 285 285 286 285 285 285 285 285 285 283 284 285 284 283 284 285 284 285 285 284 283 283
282 279 279 277 277 275 276 277 278 276 275 276 279 280 278 280 281 280 280 284 282 282 283 284 281 280 278 276 276 273 275 273 274 275 271 270 267 268 266 266 264 269 268 271 273 275 276 280 283 283 284 284 284 284 284 284 284 285 285 286 286 285 286 285 285 284 285 285 285 286 285 284 284 284 285 286 286 284 284 284 284 285 285 284 285 284 284
280 280 278 276 277 275 276 275 272 273 274 277 278 278 279 281 279 283 282 284 283 281 279 279 277 275 277 273 272 272 275 276 276 274 272 270 270 269 269 269 267 270 273 277 278 277 280 283 285 285 284 284 284 284 285 285 285 285 285 285 285 286 285 285 285 285 284 285 284 283 285 285 286 287 287 285 285 285 283 283 283 284 285 284 284 285 285
277 278 280 280 279 277 278 278 278 278 278 277 277 278 279 282 280 282 284 285 284 284 279 276 276 275 272 273 273 275 278 273 272 272 273 272 271 270 267 266 268 275 277 277 279 278 280 283 286 286 285 285 284 284 284 284 285 284 284 285 285 285 285 285 285 285 284 283 284 285 286 285 284 284 284 285 284 284 285 284 283 283 284 284 284 284 285
Wind_Speed
7 8 9 10 10 10 11 11 10 7 9 5 5 4 2 2 2 1 9 8 4 1 2 1 1 2 3 3 3 3 4 4 5 7 5 3 2 1 2 0 1 1 1 1 3 4 4 2 3 2 4 2 0 5 4 5 7 5 1 3 1 4 2 2 2 3 5 4 2 3 3 5 7 5 3 3 4 5 8 6 7 7 3 2 1 2 2
7 7 8 9 9 10 10 10 9 9 8 6 5 3 3 2 1 1 4 6 1 1 3 3 3 2 3 0 4 2 3 2 8 4 4 0 3 1 2 2 2 2 1 2 2 1 4 3 3 3 0 3 1 6 4 3 2 2 8 7 6 3 2 6 2 1 4 4 3 3 3 6 4 2 2 1 3 5 3 6 2 5 5 5 7 4 4
5 6 7 8 8 10 10 9 8 8 10 8 4 3 3 2 2 0 3 3 3 0 1 3 3 2 2 0 3 3 2 6 11 5 4 2 2 0 1 0 3 2 1 3 3 5 4 4 3 3 1 2 2 7 9 4 3 2 2 5 5 5 1 4 3 5 5 2 0 1 1 1 0 2 3 4 4 6 5 2 1 3 2 4 3 2 1
4 6 7 6 7 9 10 8 6 7 9 10 3 3 3 1 3 2 2 2 2 3 1 1 1 1 1 1 4 1 2 4 4 6 4 1 2 1 2 1 3 4 5 7 8 8 7 4 4 2 2 2 2 3 6 7 3 7 11 5 6 4 2 4 5 7 8 3 2 2 0 1 3 0 6 4 3 3 5 5 4 6 4 4 4 7 10
5 6 6 6 7 9 8 8 6 6 9 9 4 3 2 3 1 4 4 2 4 5 2 0 1 0 2 1 1 1 2 4 6 5 1 3 2 2 5 3 3 2 7 3 7 4 7 10 8 3 3 0 1 4 4 4 8 5 5 4 6 4 6 4 7 10 3 1 1 2 3 6 4 3 3 4 5 1 4 5 5 5 10 2 1 8 14
4 5 6 6 8 9 9 8 7 7 9 12 3 3 3 2 2 2 1 3 4 4 6 5 2 2 0 2 1 2 2 1 1 2 0 1 3 1 4 9 5 2 4 3 5 3 5 5 3 1 3 2 4 4 8 6 7 3 2 3 5 5 4 1 4 5 6 6 4 7 12 10 9 8 5 7 6 3 4 2 1 2 7 9 7 11 10
4 6 6 7 8 8 8 8 7 7 8 8 2 3 3 2 1 2 3 1 2 5 3 5 7 5 2 1 0 2 3 1 0 0 3 5 5 3 2 5 7 3 2 6 3 0 5 2 1 1 2 2 1 3 2 3 8 6 3 4 2 7 4 1 3 7 10 10 8 3 12 5 9 10 10 9 10 9 7 5 1 2 1 2 14 10 8
4 5 6 7 7 7 7 7 7 7 9 6 2 4 3 0 2 2 3 1 0 1 1 2 3 3 3 3 4 2 2 0 0 2 3 1 1 3 7 2 5 5 7 5 4 1 2 5 3 1 3 1 1 1 2 1 3 5 3 1 3 6 1 4 0 5 6 7 8 9 7 7 10 9 11 9 7 9 8 5 4 8 10 7 10 13 7
4 5 6 6 6 7 7 7 8 8 7 2 2 2 3 3 2 2 3 2 1 1 2 2 3 1 1 2 5 2 2 1 2 2 1 1 1 2 7 5 7 6 11 10 6 0 5 6 5 4 2 5 1 3 0 1 1 4 3 3 2 6 3 1 2 6 3 3 6 5 8 12 12 9 10 10 7 6 4 3 4 1 9 8 10 6 4
5 6 5 6 6 6 7 6 8 7 6 3 2 3 2 3 2 3 2 1 2 1 1 1 4 2 4 5 5 2 2 2 1 4 4 6 4 3 8 2 10 4 10 6 2 1 1 2 3 5 7 8 6 5 4 3 1 2 2 1 4 2 8 4 4 7 0 2 2 3 2 4 4 3 4 4 6 5 5 6 7 5 5 13 11 6 5
4 4 6 5 6 6 7 7 8 8 4 3 2 2 4 4 4 4 2 1 2 1 3 1 2 3 4 6 1 1 1 0 1 5 1 2 2 4 1 6 8 4 5 3 0 3 4 7 7 5 10 11 10 6 8 12 9 3 3 3 2 3 7 5 1 5 4 2 4 2 4 2 3 2 4 4 1 2 7 4 5 6 5 1 4 6 10
5 5 6 5 5 6 6 7 9 8 4 2 2 2 2 2 3 3 0 1 2 1 2 4 7 1 2 4 3 3 3 2 0 2 7 1 0 1 4 5 6 5 1 3 5 7 6 4 6 10 11 11 12 14 15 13 9 5 2 5 4 5 4 3 1 6 6 1 1 4 2 3 1 3 4 5 8 10 13 9 8 7 7 10 10 7 6
5 5 5 5 5 6 6 6 8 9 7 2 2 3 2 3 2 3 3 1 2 0 1 2 1 3 3 2 3 1 3 2 4 5 5 4 1 1 1 1 3 2 2 5 4 5 5 4 5 5 5 5 6 11 15 13 11 9 8 5 7 6 7 3 5 2 3 2 1 4 4 2 2 1 2 1 2 2 7 8 7 6 4 6 10 8 7
6 6 4 4 5 6 6 6 8 8 9 5 3 2 1 1 3 3 2 2 4 2 2 4 3 1 3 2 5 3 3 6 3 2 4 1 3 1 1 2 1 0 6 6 7 4 5 5 4 4 4 6 3 5 4 2 7 10 10 8 3 9 4 5 4 1 5 3 4 3 1 2 1 0 1 0 1 1 3 4 1 3 1 3 8 9 9
7 6 5 5 5 6 6 7 7 8 8 7 2 2 2 1 3 1 4 0 1 3 1 1 2 1 1 1 2 5 6 1 6 3 1 1 2 1 0 2 2 3 1 2 2 5 2 3 2 3 3 3 1 1 2 2 3 5 5 4 6 2 5 3 7 1 4 6 4 2 1 4 5 1 2 1 1 0 4 3 1 3 5 5 7 9 9
7 5 6 5 6 7 7 7 8 8 8 7 3 2 3 3 2 1 2 1 0 2 1 3 2 2 2 1 0 7 4 3 1 1 4 3 2 1 1 2 2 2 6 7 3 4 1 2 2 4 2 3 1 1 0 1 2 3 5 6 8 9 9 6 7 4 3 3 5 4 6 3 1 6 3 1 1 2 3 2 1 2 5 6 6 9 7
7 7 6 6 6 8 8 9 9 9 9 8 4 3 2 5 4 4 2 1 2 3 4 1 2 3 4 3 3 5 1 4 4 5 2 1 1 2 1 3 3 5 2 5 5 3 3 5 1 2 0 1 2 2 1 2 1 1 4 7 9 8 4 5 6 4 1 5 4 3 1 1 2 2 1 1 1 2 1 1 3 7 8 8 7 9 9
8 7 6 7 8 8 10 9 10 10 9 10 4 4 2 4 5 3 1 1 1 5 3 5 1 2 3 3 3 1 2 3 5 3 4 1 1 1 1 2 2 2 1 3 1 5 3 2 3 1 2 1 0 1 2 3 3 1 0 1 1 4 3 5 6 4 3 6 0 2 1 1 1 1 1 2 2 1 3 4 2 5 7 7 7 7 8
8 7 7 7 8 9 10 10 10 11 10 10 5 5 4 5 6 5 2 2 1 2 7 3 2 2 1 2 2 2 1 1 5 6 2 2 1 1 0 1 1 0 7 4 4 3 3 1 1 2 3 0 1 2 0 3 1 0 0 2 2 2 2 1 3 4 3 2 5 3 1 1 0 1 2 3 2 3 4 1 1 8 7 7 7 9 6
8 8 7 8 9 10 11 11 12 12 12 11 6 4 4 2 6 9 5 2 1 3 7 3 1 3 1 1 1 2 1 3 2 7 5 3 2 0 2 1 3 3 2 3 3 1 3 2 1 1 2 1 0 4 5 1 1 1 1 1 2 2 3 1 3 2 2 3 4 2 1 1 1 1 1 0 2 1 3 6 5 3 6 8 6 6 7
8 8 8 8 9 11 11 12 12 12 11 11 7 4 5 1 5 7 3 2 1 2 4 2 1 2 1 1 1 2 2 1 2 3 5 3 1 4 3 2 3 1 2 2 3 1 2 1 1 1 1 4 1 1 5 3 2 2 1 3 3 1 3 1 1 2 5 2 4 3 1 1 1 0 3 1 1 3 4 7 8 5 5 6 6 5 6
8 8 9 9 10 11 12 13 13 12 12 11 9 3 4 1 1 3 5 0 1 4 3 8 2 4 3 2 1 3 2 1 3 5 8 4 2 0 3 4 2 1 1 4 4 2 2 2 1 2 2 1 3 3 2 4 2 2 2 2 2 2 1 1 4 1 2 3 2 2 5 4 1 2 1 5 6 6 6 7 7 8 5 4 8 8 7
9 8 9 10 11 12 13 13 13 12 12 11 6 1 4 4 3 1 5 4 3 3 5 4 4 2 2 1 0 2 0 1 7 4 6 8 2 1 2 1 0 1 1 0 4 5 4 6 2 4 3 1 6 4 4 2 3 0 1 4 3 2 4 3 6 5 6 7 5 2 4 6 7 6 5 7 8 6 7 9 9 4 6 5 9 9 9
9 9 9 10 12 13 14 14 14 13 13 11 7 3 4 3 2 2 3 0 1 3 2 1 4 3 2 3 3 3 2 2 3 1 2 4 5 0 1 1 1 2 1 1 3 6 5 3 2 2 3 2 3 3 5 2 2 3 4 2 1 2 0 1 5 6 2 4 3 5 5 6 7 9 8 8 7 5 5 8 8 8 8 8 7 9 9
9 10 11 11 13 14 15 15 15 14 13 12 9 4 5 4 4 6 4 1 0 2 2 3 2 4 4 4 3 1 2 1 1 3 3 2 5 6 3 1 1 1 3 3 1 7 4 5 1 2 5 1 3 1 1 5 2 2 3 2 3 1 1 6 4 4 2 5 4 6 8 7 6 5 8 8 8 8 7 8 8 8 8 8 9 8 8
10 11 12 12 13 14 15 15 16 15 14 15 11 5 3 4 1 5 2 2 0 2 4 1 2 4 3 6 4 3 5 4 3 7 6 3 3 8 10 3 5 3 5 3 5 7 5 5 4 1 5 0 2 4 0 2 6 2 4 1 2 3 2 4 3 5 7 9 7 7 10 10 8 8 7 6 8 10 10 10 10 9 10 8 7 6 6
11 11 13 13 14 14 15 15 16 15 16 14 8 4 6 4 4 7 6 3 1 2 4 2 3 5 4 7 3 4 3 3 5 10 10 9 9 7 8 8 8 4 6 5 4 5 4 4 4 3 2 1 3 3 4 4 4 3 3 1 1 3 3 4 9 8 4 4 8 10 8 5 5 8 8 8 7 10 11 10 10 8 8 7 9 8 7
11 12 13 13 14 15 16 16 15 16 15 15 7 3 5 5 5 8 5 3 2 5 3 0 1 2 2 7 8 7 7 3 9 11 9 9 9 9 8 6 5 5 4 5 4 6 4 7 4 1 2 0 4 4 2 2 3 5 5 2 1 2 6 6 6 7 5 5 9 2 7 9 7 8 7 7 7 9 10 10 9 8 7 7 9 9 7
12 13 14 15 15 17 17 17 17 16 17 13 3 1 2 7 6 4 5 3 5 6 4 1 2 6 4 3 6 7 7 7 12 11 11 10 11 10 10 9 7 3 5 6 5 4 5 2 1 3 1 1 5 2 2 4 3 2 1 4 2 2 4 4 8 10 9 7 6 7 8 8 9 8 7 6 5 8 9 7 7 7 7 6 6 6 7
13 14 15 15 16 17 18 17 17 16 14 6 2 1 0 0 3 5 2 1 3 4 4 3 5 0 3 2 5 5 5 7 12 14 13 10 10 9 7 8 6 4 5 4 3 6 1 4 1 1 2 1 3 2 4 1 3 2 2 3 2 4 5 2 6 9 9 7 8 9 12 12 9 9 6 7 6 7 8 8 6 7 5 5 7 4 4
13 14 15 16 17 18 18 18 16 16 11 4 1 1 3 1 1 3 4 3 1 6 4 5 3 2 3 0 1 5 5 5 10 10 8 5 5 4 3 4 5 4 6 5 5 1 2 5 2 2 2 4 4 3 3 2 3 2 4 3 2 5 7 7 10 10 13 12 12 11 10 9 8 9 7 6 6 6 6 4 5 6 6 6 5 4 4
14 15 16 16 17 18 18 18 17 12 4 1 1 1 1 2 2 8 8 4 1 6 5 4 2 3 1 3 2 1 1 1 2 4 4 3 5 5 8 8 3 3 4 5 2 3 4 1 2 2 3 4 5 3 3 3 4 2 2 4 4 6 8 10 12 11 11 12 16 13 10 9 4 6 7 4 6 6 8 6 6 6 8 6 4 5 4
16 17 17 17 17 18 18 18 17 9 5 6 9 8 9 10 13 10 5 2 6 2 3 5 3 1 1 1 4 4 4 4 8 5 4 3 3 3 4 5 3 5 4 7 5 3 1 1 1 6 3 2 4 3 4 4 2 2 4 4 5 7 10 9 10 9 10 5 2 11 13 9 7 7 7 6 6 7 7 7 6 6 7 8 7 6 6
17 17 18 17 17 18 17 18 18 13 3 2 2 2 1 6 7 5 1 5 5 1 3 3 1 3 0 4 4 2 3 3 1 2 4 3 0 4 1 4 5 5 7 5 1 3 2 3 5 1 3 5 2 5 3 2 2 5 5 5 6 9 10 11 9 8 5 7 8 7 7 8 9 9 9 8 7 5 6 6 6 8 6 7 5 5 4
18 18 18 18 17 16 16 12 6 2 0 1 0 2 3 13 10 6 1 1 3 3 3 2 2 3 2 3 2 2 1 4 3 2 4 1 2 2 1 6 5 6 3 2 6 2 2 1 1 5 1 3 4 2 1 3 4 5 6 7 5 9 10 11 5 5 6 8 9 9 9 9 11 9 8 7 6 6 7 4 5 8 7 5 4 4 4
18 18 17 16 15 10 4 1 2 3 3 1 3 5 13 13 5 2 2 4 4 4 3 1 2 2 3 2 1 1 1 3 1 1 1 0 3 3 4 3 6 2 1 4 1 3 2 2 2 1 2 4 0 2 5 6 8 8 8 9 6 6 5 7 9 8 8 8 9 9 10 8 10 8 7 6 6 5 6 6 4 5 6 4 3 2 3
17 15 13 10 4 0 2 1 2 1 1 5 12 16 16 7 2 1 4 5 4 3 4 3 4 2 3 3 1 3 3 3 4 3 5 4 1 3 5 4 3 2 4 5 5 4 2 1 6 3 4 3 2 2 7 7 7 8 8 6 4 6 8 6 6 11 12 10 10 9 8 9 7 5 7 6 5 5 7 6 6 6 5 5 3 2 2
12 6 2 1 1 2 1 1 0 5 10 12 8 2 6 8 1 3 3 4 2 4 4 3 2 1 1 3 2 1 3 1 1 2 1 1 2 2 1 3 0 1 2 2 1 1 1 6 3 3 2 2 1 3 5 5 5 5 6 5 5 7 6 5 6 11 12 11 8 7 7 7 6 4 7 5 5 5 4 3 3 2 4 3 4 3 1
3 1 2 3 3 0 2 1 5 13 5 2 3 1 1 1 1 1 1 1 2 1 2 3 2 2 4 5 1 1 3 3 2 4 3 2 2 0 2 3 2 4 1 2 1 3 3 3 3 4 2 1 2 0 1 3 4 6 6 5 8 8 7 7 7 10 8 8 9 7 8 9 9 5 3 4 2 1 3 3 3 3 3 3 3 2 1
4 1 1 1 1 2 4 6 11 5 2 0 3 2 0 1 2 1 1 2 1 2 0 2 1 3 2 7 6 1 1 2 2 0 2 1 0 3 1 2 1 4 1 1 1 3 5 2 1 2 2 1 3 1 3 3 5 5 5 6 7 7 6 8 7 7 8 7 8 8 7 7 7 7 6 5 5 4 2 3 3 3 3 3 3 5 5
3 2 2 1 2 3 4 6 5 2 2 1 1 2 1 1 1 0 1 2 0 1 0 2 1 1 1 2 2 3 2 3 1 2 4 3 1 3 2 1 1 3 0 1 1 3 2 3 1 2 6 4 4 3 3 3 4 4 4 5 6 7 7 6 5 5 6 5 4 4 4 4 5 5 6 6 6 5 5 4 4 4 4 4 4 3 2
2 1 1 2 3 4 4 2 3 1 1 1 2 0 1 1 0 1 1 3 2 1 0 1 1 4 2 2 2 4 1 0 2 1 2 1 1 2 1 0 2 2 1 2 1 3 3 2 1 1 5 5 3 4 5 5 4 5 5 5 5 5 6 6 6 4 5 8 6 5 4 4 5 4 5 5 5 5 4 4 3 4 4 2 3 3 4
4 1 2 1 1 1 1 1 2 1 1 0 2 1 1 1 0 2 1 1 1 2 1 0 0 0 1 2 2 1 1 1 0 1 3 1 0 2 2 1 1 2 1 1 2 2 2 2 3 6 5 5 6 7 7 8 6 6 7 6 7 7 8 8 9 7 4 5 9 8 7 6 5 4 4 4 3 2 1 2 4 4 4 4 4 4 5
0 1 1 2 1 1 1 2 1 1 1 1 2 2 0 1 0 1 1 1 1 1 1 5 3 5 3 2 2 0 1 1 4 3 2 0 1 1 1 0 0 1 0 2 1 1 2 2 7 7 7 5 6 8 8 6 6 5 5 5 4 4 5 4 4 5 4 2 2 3 4 4 3 3 3 3 4 6 4 3 2 3 4 5 5 4 4
0 1 2 1 1 1 2 1 2 2 3 2 1 1 3 4 3 2 3 3 1 4 1 3 5 6 3 1 2 1 1 1 2 3 1 1 2 1 2 1 1 2 2 1 0 1 1 1 3 2 4 8 8 8 8 7 7 9 7 5 5 5 6 7 6 6 5 6 7 6 5 4 4 4 4 5 4 4 8 7 6 6 5 5 5 4 3
1 2 1 3 1 2 1 0 1 0 2 2 2 6 5 5 5 4 5 1 3 4 7 5 4 7 3 1 4 2 1 2 2 1 0 1 2 1 0 0 2 2 1 1 1 3 5 5 6 8 9 10 10 8 8 8 7 4 8 8 7 8 8 8 7 7 7 6 5 6 6 5 6 6 5 4 4 5 4 6 7 8 6 6 6 6 4
1 1 2 1 2 1 0 1 2 3 3 4 5 7 7 7 7 2 1 1 2 4 6 1 3 3 6 0 1 1 3 2 2 1 1 1 1 0 1 1 0 0 2 1 3 4 4 6 6 8 10 9 9 8 8 6 6 8 10 8 9 9 8 8 7 8 6 6 6 6 5 6 5 5 5 4 3 2 4 6 6 7 8 8 6 5 5
1 0 1 1 2 1 2 3 1 1 1 1 1 3 3 1 1 0 1 2 5 5 7 5 5 2 4 2 4 2 0 1 2 1 1 1 0 2 1 1 0 1 2 3 5 6 4 4 8 9 9 10 10 10 8 8 7 8 8 9 9 9 8 9 7 6 7 8 8 8 6 6 6 7 8 7 5 3 4 5 6 5 4 4 5 4 5
1 1 1 1 1 2 1 1 2 3 1 2 1 0 2 4 2 1 2 1 5 4 2 6 3 4 1 1 2 1 1 2 2 1 0 1 1 2 1 1 0 1 4 5 3 4 6 7 8 10 9 9 9 10 10 9 10 9 9 10 10 11 10 10 10 10 9 8 8 8 8 8 7 6 4 4 5 5 4 4 4 4 5 6 6 6 5
0 0 1 2 1 1 1 0 2 1 3 2 0 1 1 1 1 1 2 4 1 4 2 4 3 5 1 1 1 2 0 1 1 0 2 0 1 1 2 0 3 4 1 3 4 5 4 5 8 9 9 10 9 9 9 8 9 10 9 9 9 9 10 10 9 9 10 9 10 10 9 7 6 6 7 9 7 4 5 4 5 5 5 4 6 5 6
1 0 1 2 2 3 4 2 4 2 1 4 3 4 4 6 5 4 3 4 4 4 4 3 1 2 1 2 1 1 1 1 2 1 2 2 1 3 2 2 4 7 7 6 6 4 6 8 10 10 9 9 9 9 9 10 10 9 8 8 8 8 8 9 11 10 8 7 7 9 9 9 10 10 7 4 6 6 4 3 4 4 5 4 4 5 6
1 1 1 1 0 2 3 1 1 3 5 4 4 5 3 4 4 3 2 6 5 7 4 1 3 2 2 1 2 1 0 2 1 0 1 2 3 2 3 5 3 6 8 6 5 4 5 6 9 13 12 12 10 9 8 7 8 7 7 7 8 8 8 8 8 8 7 6 8 9 9 7 5 3 5 6 5 5 5 5 5 4 4 5 5 5 5
Wind_Direction
274 299 313 315 313 315 321 319 325 343 345 321 339 302 250 249 299 10 149 160 165 56 64 342 174 202 233 297 296 229 249 252 283 310 302 315 220 303 37 308 83 12 144 153 94 113 85 43 147 146 110 133 251 282 313 146 78 78 33 57 260 88 83 71 304 321 299 319 291 38 52 90 69 29 53 91 149 175 162 172 182 141 165 91 16 65 251
278 301 310 312 317 322 321 320 325 339 345 322 324 301 298 341 246 36 133 174 270 110 150 203 225 277 300 257 255 256 261 300 291 262 297 0 321 6 314 344 89 79 28 83 100 200 90 4 86 58 126 71 334 1 31 132 119 112 200 138 218 126 286 122 71 13 336 346 348 358 344 51 77 88 336 50 92 77 128 107 47 102 206 169 128 185 224
283 294 309 313 318 321 317 322 326 340 335 336 336 308 315 312 255 287 104 184 303 235 190 139 152 188 221 334 311 300 279 215 231 251 288 307 281 297 0 116 308 35 336 92 99 46 125 121 354 115 73 103 346 352 24 60 101 11 161 126 116 91 175 109 124 152 156 160 221 231 217 122 286 84 21 22 108 135 114 143 67 127 214 127 130 177 250
277 300 309 310 317 319 320 324 328 341 329 332 321 323 287 237 106 88 94 224 260 268 228 247 145 137 175 316 258 221 277 300 261 183 263 233 299 89 268 337 65 43 49 45 42 35 24 90 179 75 52 337 25 4 359 43 98 90 74 52 74 120 91 69 157 153 178 200 204 264 131 48 76 16 42 353 14 17 94 99 102 189 185 173 221 158 151
283 306 310 308 308 316 321 320 336 340 327 333 340 297 259 314 202 147 162 171 249 256 307 281 91 209 193 140 309 288 227 262 310 155 261 40 48 7 46 346 45 3 63 65 62 352 60 46 75 27 117 262 184 296 75 37 24 92 72 24 83 81 67 18 75 55 75 113 107 6 71 102 22 33 350 17 18 24 98 135 207 162 106 261 258 165 149
294 301 305 305 306 310 321 319 335 344 333 335 315 285 222 165 282 327 219 150 199 208 266 189 210 253 0 269 342 260 294 289 242 332 230 323 22 81 347 26 23 14 116 125 81 356 62 33 78 347 13 64 353 37 10 53 323 16 56 14 105 114 110 328 80 47 44 39 50 89 78 64 67 53 38 46 19 50 106 183 222 128 151 197 187 162 150
305 316 313 308 304 313 315 317 332 337 323 326 287 279 249 231 247 214 270 256 233 174 216 167 184 225 185 272 252 292 241 264 237 204 322 18 355 56 90 341 339 15 50 92 119 36 78 9 325 143 42 56 48 43 350 36 24 48 57 33 102 97 53 59 96 91 41 24 35 34 104 105 58 35 36 42 63 61 76 88 131 131 78 159 139 136 97
321 309 304 301 313 319 315 316 334 338 328 319 249 228 288 143 0 304 318 7 122 199 78 128 125 197 219 196 237 237 231 237 350 8 78 68 358 16 77 356 28 45 59 68 79 268 165 165 125 252 127 32 71 123 180 219 343 43 51 47 356 100 198 166 34 69 22 20 44 50 63 93 80 37 33 32 38 56 42 72 63 67 49 66 112 114 112
300 298 309 315 310 323 327 329 338 339 337 294 231 267 208 301 295 238 304 346 270 63 92 114 146 120 300 154 268 208 283 66 135 77 316 163 174 74 133 145 79 42 71 66 81 188 121 99 111 177 146 123 201 122 262 113 65 4 32 25 345 65 144 52 75 79 12 351 41 63 77 80 79 51 23 20 11 42 12 20 341 63 130 110 102 111 153
313 320 320 314 315 324 330 336 340 338 333 286 289 265 351 302 272 297 272 192 295 197 166 100 101 227 216 178 231 180 251 203 63 68 12 34 45 123 136 189 94 42 68 64 85 198 183 92 136 110 82 93 76 71 89 67 124 128 75 315 65 90 132 131 112 89 282 253 22 10 19 64 33 353 330 354 72 96 86 36 18 18 130 134 164 190 99
323 321 321 315 307 325 334 333 335 337 349 340 336 328 333 0 335 340 307 265 309 163 123 251 150 219 134 217 248 325 290 51 212 109 293 22 5 8 47 106 93 100 79 95 63 166 118 104 97 92 78 73 73 58 66 55 49 74 137 68 22 58 111 110 100 108 168 237 1 357 62 134 220 328 303 249 244 126 77 38 14 16 51 29 30 111 120
330 331 315 314 316 325 332 333 331 331 330 301 306 286 314 7 313 252 32 127 267 342 154 204 190 227 165 220 174 197 161 210 287 153 132 205 179 12 83 56 84 78 180 98 107 113 111 70 66 62 56 60 61 52 48 46 22 39 59 126 120 104 83 89 75 102 157 174 46 57 182 233 294 310 30 72 98 104 96 72 52 56 85 102 95 98 97
340 329 327 326 333 327 336 334 331 331 339 319 309 304 343 8 301 299 294 130 247 244 182 254 264 266 247 147 96 47 154 128 75 82 90 114 50 12 324 120 113 187 110 107 100 52 64 85 54 73 37 9 28 45 33 25 17 10 34 38 117 129 109 150 50 89 62 68 83 144 238 243 312 340 359 23 103 99 93 69 49 46 73 108 114 107 101
334 326 332 325 333 337 332 340 328 329 326 329 303 308 310 9 324 314 340 59 298 233 240 305 342 49 103 163 131 125 96 56 12 57 83 13 108 68 355 98 9 95 122 103 62 75 56 26 57 21 342 10 5 30 329 2 39 30 10 9 51 124 99 93 91 0 131 130 56 82 335 276 123 317 230 318 207 253 127 136 0 99 115 127 125 123 119
338 336 327 324 339 334 336 334 332 325 325 326 298 294 266 192 226 280 318 278 273 302 77 95 288 317 159 129 93 77 54 22 72 41 315 315 68 332 144 347 14 82 67 73 35 33 127 101 56 80 345 50 78 241 337 31 310 34 29 22 50 35 124 208 107 286 119 135 104 92 28 249 198 180 56 180 346 294 296 81 60 118 110 133 141 131 130
345 339 328 330 333 336 330 332 325 331 326 333 297 250 228 204 189 149 294 10 29 39 287 226 213 152 119 84 153 123 147 86 100 36 8 1 5 357 355 24 10 71 48 71 85 92 43 101 171 100 175 184 222 90 228 358 5 330 22 31 63 41 72 101 106 144 75 91 132 188 183 235 35 174 194 99 352 309 298 59 297 163 143 148 150 135 137
345 338 331 326 329 330 328 327 329 332 335 330 323 307 277 169 184 190 164 207 223 231 271 288 125 108 98 57 51 44 98 129 155 110 72 15 323 280 300 356 356 58 83 79 11 66 48 53 59 117 329 205 112 183 95 53 85 347 340 12 42 45 3 31 60 89 129 138 103 191 205 220 191 194 268 284 18 15 338 66 273 165 160 149 150 151 148
345 337 328 326 324 325 325 326 329 331 332 330 311 313 268 168 185 177 180 224 219 279 259 192 130 63 78 175 131 216 70 67 55 42 98 228 338 24 300 7 31 349 103 83 41 71 76 101 125 140 131 255 86 65 157 175 114 199 1 4 44 4 2 43 150 140 107 98 245 4 326 315 249 190 308 326 210 280 103 192 226 151 143 146 145 149 139
339 336 328 322 316 320 324 325 329 329 330 330 318 281 243 193 175 201 219 200 126 279 296 314 195 121 170 100 106 160 161 161 155 104 89 41 74 246 137 168 154 264 3 133 70 93 111 0 51 119 125 308 27 156 290 63 197 347 40 60 53 24 92 354 78 68 129 180 110 195 232 242 2 312 278 275 144 145 213 211 70 139 139 137 146 137 128
337 331 326 319 316 318 324 327 328 328 330 335 338 300 273 174 189 190 174 185 161 254 286 308 34 31 238 90 64 44 34 31 44 123 155 145 261 70 30 28 328 81 15 66 62 185 99 163 192 131 48 125 245 150 56 268 268 90 137 322 121 198 102 136 113 155 69 43 74 22 216 221 76 298 58 237 172 275 112 114 57 88 121 129 130 124 115
335 328 325 321 317 320 324 327 326 329 332 333 341 325 318 125 194 206 237 105 59 355 312 300 353 323 119 45 306 159 139 180 168 112 207 127 176 88 114 199 223 118 187 128 145 209 141 139 212 129 192 124 200 73 165 149 25 339 122 174 121 312 77 101 219 213 143 129 157 202 288 121 255 197 173 190 14 113 120 117 112 79 93 99 97 76 107
330 323 327 324 322 323 324 325 328 328 330 331 336 306 282 274 171 195 195 336 200 205 239 282 254 256 256 265 188 165 126 166 202 149 137 105 336 146 188 126 164 144 190 122 57 43 349 154 68 82 124 73 23 105 148 79 163 268 337 67 102 320 165 202 148 120 130 188 182 240 239 237 239 201 120 90 87 90 94 86 93 115 88 99 104 112 110
326 324 323 322 323 324 325 326 326 326 327 329 329 224 276 310 336 68 145 191 281 288 277 306 333 281 315 338 180 195 277 70 122 104 124 109 67 33 111 106 249 194 101 106 164 154 173 127 163 158 89 84 144 114 32 98 167 209 83 335 125 88 123 88 85 101 108 64 37 67 79 96 81 59 64 87 89 78 99 111 105 76 107 120 126 123 120
325 324 322 324 323 324 326 325 323 324 323 319 317 265 273 243 234 189 146 59 121 308 313 307 60 355 301 312 339 357 35 356 349 132 163 120 112 1 332 255 144 61 45 207 176 133 179 111 164 135 107 214 95 83 122 58 93 149 115 136 116 224 96 52 100 167 106 67 1 56 80 79 93 90 72 66 65 78 92 97 98 110 109 104 104 118 122
324 321 320 319 323 325 325 323 321 321 318 314 312 260 271 266 209 185 171 135 214 113 133 318 7 257 281 273 278 11 53 268 316 63 65 75 130 145 173 166 157 153 196 186 138 76 50 105 87 66 104 233 112 73 238 113 161 149 88 107 101 332 180 83 86 93 82 127 119 83 72 66 69 84 97 86 81 77 73 89 96 98 95 101 110 107 102
320 318 318 319 321 324 322 321 321 318 316 313 316 292 257 244 212 168 265 353 69 121 95 15 299 319 325 31 14 286 298 15 54 61 50 90 124 121 137 118 45 38 95 86 76 92 107 61 89 104 106 331 75 124 129 241 132 111 101 175 199 163 127 115 177 113 96 94 94 104 84 63 61 73 72 88 107 102 95 94 96 99 101 99 86 82 97
317 317 316 317 320 321 320 320 319 316 313 310 308 254 232 242 182 169 185 166 127 353 37 95 283 302 15 52 339 347 351 347 66 67 58 44 72 75 87 95 99 57 74 55 47 109 73 91 86 53 81 148 112 100 128 69 83 84 86 0 11 65 70 127 115 115 169 170 167 157 129 128 97 95 101 102 101 104 103 97 92 92 98 98 98 86 82
318 315 314 316 319 318 318 317 316 315 312 316 309 262 217 225 209 202 245 181 158 164 162 214 17 293 299 45 6 7 356 15 81 77 71 59 56 66 74 82 87 72 25 75 36 36 48 75 82 219 105 31 65 42 23 117 80 54 40 344 312 142 168 166 151 152 164 143 153 63 86 97 111 118 108 101 102 103 105 104 107 100 95 103 103 100 86
317 316 315 317 317 315 315 316 316 316 322 329 294 197 215 233 241 241 238 197 145 96 98 151 302 23 57 277 323 16 8 51 72 76 75 61 55 54 68 65 71 117 93 74 100 99 86 101 166 76 57 201 95 128 36 43 49 76 315 309 317 244 141 127 111 93 77 101 113 118 119 121 128 122 114 109 109 106 103 98 96 104 106 103 99 109 118
319 315 313 314 313 312 313 314 316 319 329 338 21 56 34 301 215 209 261 172 176 123 90 75 74 266 285 345 354 2 10 39 68 64 58 58 50 50 36 62 37 33 80 100 112 82 13 95 353 0 358 8 110 143 78 152 81 64 13 350 339 56 61 77 132 130 132 121 103 103 113 110 115 120 115 111 110 107 109 111 112 101 85 100 104 94 104
322 316 313 313 312 311 311 312 314 319 336 2 72 49 40 60 299 187 2 0 4 103 121 91 111 277 39 335 61 2 350 18 66 69 57 54 62 42 341 65 53 35 59 22 45 76 88 27 30 0 346 44 96 88 144 116 107 76 355 8 9 80 87 88 87 92 108 105 102 99 98 104 110 100 78 88 93 98 90 79 78 93 101 89 91 112 112
323 318 314 314 312 310 309 309 310 317 321 292 71 154 169 195 258 308 327 322 354 65 78 80 23 12 303 324 329 295 9 5 49 34 29 21 34 12 39 52 78 17 101 102 139 68 34 250 92 23 48 335 66 94 66 68 85 114 71 61 55 87 99 103 101 103 101 112 115 99 94 108 109 121 139 126 96 88 99 95 93 90 87 92 90 75 75
322 318 316 313 311 309 307 305 305 308 274 259 275 273 267 271 276 277 286 299 53 74 114 78 122 197 75 261 321 352 21 25 22 29 34 355 40 12 37 6 22 44 28 75 9 89 235 80 342 56 334 23 73 84 74 47 81 94 101 96 94 100 98 95 98 103 111 100 49 135 147 149 126 104 102 104 106 109 108 106 109 102 94 89 83 77 64
320 314 312 311 307 306 305 305 306 303 296 351 61 31 301 319 314 289 288 81 100 118 73 102 67 56 44 310 79 297 47 98 335 30 72 355 2 63 3 37 5 76 348 78 274 65 352 60 40 86 338 19 19 76 61 39 53 100 92 93 104 106 105 102 101 96 72 84 83 71 92 106 106 106 98 93 85 80 96 112 111 94 92 91 88 96 113
315 311 307 306 304 303 306 313 335 44 167 273 254 250 294 336 325 303 337 122 71 351 34 22 108 89 34 4 41 311 35 79 29 347 106 341 31 81 34 53 335 67 326 79 48 67 46 354 214 62 320 305 43 55 168 150 115 104 105 103 109 113 112 102 80 100 103 99 100 106 109 110 106 101 107 104 103 108 98 79 104 111 97 103 108 100 106
310 308 306 302 301 307 316 291 29 5 29 353 257 300 321 320 335 0 44 77 110 151 82 232 72 120 135 117 76 300 29 50 319 7 39 27 9 23 84 105 62 345 250 70 110 352 51 314 67 33 302 59 285 184 147 145 138 134 130 132 143 127 121 128 135 114 98 96 102 107 102 94 100 110 107 108 106 101 106 99 74 91 117 116 117 85 89
310 307 306 304 322 50 14 239 288 92 228 253 277 295 296 298 260 34 5 35 7 84 130 148 76 216 144 177 235 279 72 98 349 33 346 47 132 300 44 40 74 313 38 9 19 38 334 28 95 61 14 100 80 138 134 148 142 141 139 142 126 101 108 111 126 114 101 93 94 97 104 106 98 102 106 108 117 115 116 133 149 139 147 163 171 164 199
309 311 5 33 40 47 357 322 310 295 312 298 314 341 359 32 76 345 358 38 306 56 3 64 100 192 7 81 111 255 78 308 48 108 0 238 67 4 7 82 248 72 53 295 310 167 49 38 48 99 19 295 342 125 143 145 142 125 126 123 118 115 114 121 120 111 113 109 100 106 107 108 114 127 131 141 141 142 155 149 148 139 142 156 182 173 131
51 37 39 38 96 167 187 245 325 326 307 262 37 73 345 11 55 36 327 282 11 51 308 96 160 166 98 62 9 304 131 159 39 33 95 284 105 331 34 83 313 71 357 40 310 54 48 0 10 35 47 331 91 212 79 121 123 135 136 137 134 135 133 130 124 124 133 144 152 157 148 151 155 172 158 130 116 106 147 147 160 179 167 168 160 158 144
24 40 54 36 128 239 271 300 338 342 57 56 332 98 85 333 97 225 309 71 357 305 16 82 193 162 178 151 156 63 344 75 109 140 133 336 0 124 242 91 268 85 22 69 281 20 110 102 314 80 167 264 215 244 133 149 132 135 132 132 135 138 138 135 143 149 145 153 157 161 159 155 154 153 166 168 164 174 190 183 181 177 177 182 173 167 189
18 74 31 76 255 307 300 302 333 51 61 40 7 11 60 45 7 188 70 52 115 216 252 149 61 59 20 58 78 124 281 91 145 128 107 80 254 88 51 84 220 83 345 75 295 65 71 73 28 128 209 223 196 193 161 138 151 146 142 138 144 151 149 144 141 139 129 126 118 115 127 143 153 163 170 170 173 181 185 176 181 185 168 166 168 190 145
222 169 211 244 274 283 314 356 53 44 16 66 118 4 285 230 325 10 100 134 227 227 332 94 118 140 197 184 171 134 65 187 123 97 101 89 324 105 149 272 7 105 159 235 124 63 75 104 100 262 254 219 217 159 153 180 183 152 158 146 149 150 149 148 146 163 157 153 154 153 157 149 159 168 168 164 174 180 168 161 168 188 192 165 123 126 128
282 168 116 309 0 353 51 57 319 101 139 178 46 30 346 84 179 157 254 289 297 92 236 74 179 153 39 66 46 62 167 232 160 0 68 105 293 56 82 21 50 60 190 334 68 56 59 144 192 235 219 182 176 170 181 185 184 178 166 164 165 172 164 163 167 172 183 161 160 165 175 170 183 178 166 152 136 130 161 178 183 175 158 147 145 153 149
180 125 13 340 69 305 76 167 263 45 357 33 108 169 259 53 302 20 47 245 218 63 180 132 197 122 134 325 134 304 18 16 50 85 57 319 80 23 50 56 94 252 327 44 46 118 211 216 203 201 187 169 170 179 182 179 181 175 168 168 152 151 154 134 110 105 110 95 104 127 131 137 123 124 148 162 167 179 178 147 153 154 142 127 146 158 141
121 354 31 27 35 279 74 270 339 117 187 242 125 160 147 167 236 185 179 246 102 195 150 86 122 93 106 278 45 7 88 163 317 96 223 74 56 14 99 175 230 31 92 196 343 334 355 277 256 192 170 168 182 185 181 175 171 180 174 135 142 152 155 161 170 156 159 162 166 152 153 155 142 166 176 182 191 182 152 161 164 143 144 144 144 137 151
99 162 94 88 6 314 104 179 7 40 291 143 186 188 163 220 165 209 244 128 102 114 132 161 108 95 62 281 127 180 0 82 57 24 115 68 98 66 257 301 70 70 25 44 96 209 218 226 190 184 181 177 175 177 173 181 181 154 134 162 176 172 181 172 173 172 175 161 159 159 160 158 158 159 179 186 180 193 165 146 154 151 147 135 153 168 175
77 5 89 113 109 270 93 140 232 205 177 197 215 181 179 190 194 195 189 139 134 168 104 93 103 147 127 245 36 13 34 40 91 284 73 57 116 217 4 113 232 168 139 235 245 251 261 244 212 187 175 173 163 164 163 161 157 167 183 170 165 175 176 173 171 175 179 160 153 154 159 165 171 164 138 138 188 170 144 146 152 155 155 166 172 153 153
154 241 94 121 217 168 147 234 209 308 239 173 254 213 236 216 100 274 244 180 152 139 125 107 92 51 47 316 83 134 237 354 90 323 114 154 56 42 15 37 302 253 184 164 225 220 231 226 181 180 179 167 160 157 161 163 173 180 177 168 169 166 170 170 175 168 152 158 164 165 162 156 152 164 171 170 164 173 163 163 160 154 123 105 124 148 163
143 120 158 192 189 149 194 270 116 184 275 328 292 22 133 124 192 240 256 191 126 150 166 118 171 89 82 286 86 67 41 339 92 244 8 36 95 185 152 207 132 302 257 176 213 208 216 199 176 161 157 156 164 162 169 172 170 174 177 171 173 173 168 171 171 169 167 164 160 155 165 172 164 156 139 131 152 195 184 155 152 157 156 150 154 163 172
77 353 27 83 30 329 269 198 59 311 307 338 13 188 280 153 219 268 190 113 137 130 101 63 50 90 208 94 28 17 1 300 134 62 64 111 189 165 79 1 228 193 254 239 228 239 217 159 137 149 162 162 164 164 162 170 169 174 182 178 166 159 167 165 161 161 163 168 167 166 158 151 159 151 155 176 186 151 142 150 168 174 179 171 160 167 179
348 111 216 174 140 213 153 158 190 204 282 252 201 222 174 197 183 172 209 131 130 69 48 134 187 96 86 32 54 59 238 201 69 114 161 197 191 117 173 198 240 214 230 231 216 211 172 165 156 155 157 164 166 167 167 164 168 176 173 165 165 161 157 157 158 160 164 165 150 135 149 170 181 183 178 134 115 125 127 145 190 191 185 181 183 185 192
61 97 193 274 140 141 153 118 131 193 207 208 200 240 162 204 220 217 186 113 105 115 165 192 93 69 73 137 213 183 71 44 48 45 6 275 156 147 210 198 223 219 217 225 237 211 193 184 167 158 162 162 165 162 157 155 153 155 160 160 154 150 151 155 158 155 148 148 161 167 177 175 151 117 108 111 109 121 151 193 211 197 190 193 205 208 214